Theta_e
284 284 284 285 286 286 284 284 284 283 283 281 281 283 285 285 283 282 286 284 285 287 289 287 287 287 287 285 285 284 283 282 282 281 281 282 282 281 281 282 282 282 282 282 282 282 282 283 282 282 282 282 281 281 281 280 279 279 279 278 277 276 276 275 275 275 274 273 273 272 271 270 269 268 268 268 267 267 267 267 267 267 267 267 266 266 266
286 285 285 284 286 285 284 284 284 284 283 283 284 285 286 286 286 287 286 284 285 288 283 286 288 287 285 284 282 282 282 282 282 282 282 282 282 281 282 282 282 282 282 282 281 281 281 282 282 281 281 282 281 280 280 279 279 279 278 278 276 276 275 274 274 273 272 272 271 270 269 268 267 267 267 266 266 266 266 266 266 266 266 266 266 265 265
286 283 283 283 285 284 283 285 285 285 283 284 285 286 286 285 284 285 282 282 283 284 283 285 284 283 283 283 283 282 282 281 282 282 282 282 282 282 282 282 281 281 281 281 281 281 281 281 281 282 282 282 281 280 280 278 278 277 278 277 276 276 275 273 272 271 270 270 269 268 268 267 266 266 266 265 265 264 264 264 264 265 265 265 265 265 265
282 278 281 281 281 281 281 283 285 283 281 281 283 280 281 282 283 283 282 281 283 284 284 284 282 281 283 284 283 282 282 282 282 282 282 282 282 282 282 282 281 281 281 281 281 281 281 281 282 282 281 281 280 279 279 278 277 276 276 276 275 274 273 272 271 270 269 268 267 267 266 265 265 264 264 263 263 263 263 263 264 264 264 264 264 264 264
282 276 279 279 280 281 281 282 284 283 283 283 279 282 283 285 286 282 281 283 287 283 283 284 283 281 281 282 281 282 282 281 281 282 282 282 282 282 282 282 282 282 281 281 281 281 281 281 281 282 282 281 280 279 278 277 275 275 275 275 274 272 271 270 269 268 267 266 266 265 264 264 264 263 262 263 262 262 262 263 263 263 263 263 263 263 263
277 272 276 279 279 274 278 284 286 287 284 283 280 281 281 283 286 285 286 285 280 279 281 283 282 281 281 283 283 283 284 282 280 280 280 280 281 281 282 282 282 282 282 282 282 282 281 282 282 282 281 281 280 279 277 275 274 274 274 273 272 271 269 269 268 267 266 265 265 264 263 263 263 262 262 262 262 262 262 262 262 262 262 262 262 262 262
274 275 278 277 272 276 282 277 277 278 286 286 284 285 284 284 284 284 281 277 279 281 282 283 283 283 281 278 279 280 279 280 281 280 280 280 280 281 281 281 281 281 281 281 281 280 280 281 280 279 279 279 277 275 275 274 274 273 272 272 270 270 268 268 267 266 266 264 264 263 263 262 262 262 261 261 262 262 261 262 262 261 261 261 261 261 261
275 273 277 271 274 279 278 277 276 278 279 280 281 278 281 281 283 283 282 283 282 282 281 281 279 278 278 276 275 277 277 279 280 279 280 281 281 281 281 282 281 280 280 280 280 280 280 279 279 279 279 277 276 275 273 274 272 272 271 270 269 268 267 266 266 265 264 263 263 263 262 261 261 262 261 261 261 261 261 261 261 261 261 261 260 260 260
274 276 275 278 281 280 279 276 277 278 278 278 279 276 279 282 280 280 281 282 282 282 281 278 274 274 276 277 279 277 277 278 280 282 282 282 281 281 281 281 281 281 280 280 280 279 278 278 278 278 277 275 275 272 272 271 270 270 269 269 269 268 267 266 265 265 265 263 262 262 261 261 260 260 261 260 260 260 259 260 260 260 259 259 260 260 259
279 275 274 272 275 274 280 280 279 279 279 280 280 278 274 274 273 280 281 281 282 282 276 274 273 275 276 274 278 278 278 278 279 279 280 279 279 280 280 279 279 279 278 278 278 278 277 277 277 276 274 274 273 272 271 269 269 269 269 269 269 267 266 265 265 264 264 262 261 261 260 259 260 262 260 260 259 259 259 259 259 259 259 258 259 259 259
277 276 275 275 274 277 279 277 274 275 275 278 276 273 271 275 274 279 280 280 280 278 274 271 274 274 269 273 277 278 277 276 276 277 278 279 279 278 279 279 279 278 277 277 276 276 276 276 275 274 273 272 272 271 270 269 269 269 269 269 268 267 266 265 264 263 262 262 262 260 260 261 259 259 259 259 259 258 258 258 258 258 258 258 258 258 258
278 278 276 274 277 275 277 273 274 275 276 279 279 269 270 275 274 277 278 279 278 274 274 274 276 276 270 274 277 278 278 277 276 277 277 276 277 277 277 277 277 277 275 274 274 274 274 276 273 272 271 272 272 271 269 269 268 269 270 269 268 267 266 264 263 262 262 261 260 259 260 259 258 258 258 257 257 258 257 257 257 257 257 257 256 257 258
279 280 277 275 275 279 275 275 276 276 276 278 271 271 275 276 274 276 278 278 278 276 274 276 274 277 278 277 278 276 276 276 276 276 275 276 276 276 276 275 278 274 275 276 276 276 276 274 271 271 271 271 271 270 269 268 269 271 270 268 266 265 264 263 262 261 261 260 259 258 259 258 259 257 257 259 258 257 256 256 256 256 256 256 257 257 258
277 278 276 276 278 280 277 276 278 278 279 269 270 277 278 277 276 276 278 277 276 276 276 277 278 278 278 275 275 274 276 277 276 276 276 275 275 274 274 275 275 274 273 273 273 272 272 271 270 270 271 271 272 269 268 268 271 270 267 266 265 263 263 262 261 260 258 258 258 257 256 256 256 256 256 256 256 256 256 256 255 255 256 256 256 257 258
274 274 275 273 272 279 278 278 277 278 274 275 279 275 275 277 277 276 276 277 277 277 276 277 278 277 276 276 276 275 274 274 276 275 274 275 275 275 273 273 274 274 273 273 273 274 271 269 269 269 270 271 270 268 268 271 270 266 265 264 264 263 262 260 259 258 257 256 256 255 255 256 255 255 255 254 254 254 254 254 254 254 255 256 256 256 257
272 275 272 273 280 278 279 280 277 278 280 280 277 278 276 276 275 277 277 276 277 277 277 277 276 276 275 274 273 274 274 274 274 274 273 273 273 272 273 274 274 273 274 274 274 272 269 269 268 269 270 271 270 268 270 271 266 264 263 263 262 261 260 259 258 257 255 254 254 254 255 255 254 254 254 254 254 253 254 254 255 255 256 256 256 256 256
275 274 278 278 276 279 280 281 279 281 281 278 278 279 279 277 276 275 276 278 277 276 277 277 277 275 275 276 275 274 275 275 274 274 274 274 274 274 274 273 272 272 274 274 273 271 269 268 268 268 269 271 270 269 271 266 265 263 262 261 261 260 259 257 256 255 253 253 253 252 253 254 254 254 254 251 254 254 254 254 255 254 255 254 255 255 256
277 276 277 275 274 276 279 279 278 279 278 276 277 278 278 278 277 277 277 277 277 276 276 275 273 274 275 275 274 273 274 274 274 273 272 272 272 272 271 270 271 272 272 270 269 271 269 267 267 267 268 270 270 271 268 265 264 263 261 260 260 259 257 256 256 254 254 253 252 253 253 253 254 254 254 254 255 254 254 255 254 253 255 255 255 255 256
274 270 275 274 276 277 278 280 279 277 278 278 276 276 278 278 276 277 277 276 276 276 275 276 276 276 275 274 275 274 274 273 273 273 273 273 273 272 271 273 270 269 268 270 270 270 270 267 266 266 266 267 270 265 263 264 263 261 260 261 260 258 257 256 254 253 255 255 254 253 252 253 253 254 254 254 253 255 255 254 254 254 254 255 255 256 257
273 272 275 274 274 275 277 278 278 279 279 276 276 277 277 276 275 275 276 273 272 274 273 275 275 276 276 274 275 274 274 274 274 273 272 273 273 272 272 271 269 268 269 271 271 270 271 270 267 266 265 266 265 262 263 263 261 260 260 260 260 258 256 255 255 254 255 256 256 254 254 253 254 253 253 254 254 254 254 254 254 254 254 255 256 257 259
273 273 273 274 273 275 277 277 277 278 278 278 277 277 276 276 275 274 273 274 274 274 275 275 275 275 275 274 274 273 273 272 272 273 273 273 273 273 272 270 269 271 271 270 271 271 272 271 267 265 265 264 263 262 262 261 260 261 261 260 258 256 255 254 254 254 254 254 255 255 255 254 254 255 255 254 254 255 255 256 256 256 256 257 259 259 260
269 269 273 274 269 267 275 276 278 279 278 277 276 275 274 275 275 275 275 274 273 273 274 274 274 274 275 274 272 272 274 274 274 273 273 272 272 272 271 270 269 270 270 271 271 271 272 270 267 265 264 263 262 262 261 261 261 262 261 259 257 257 256 255 254 254 255 254 254 255 254 254 252 253 257 262 259 256 257 261 265 266 265 260 261 262 262
269 274 276 277 278 276 276 278 279 279 278 276 276 276 277 276 276 275 275 274 272 273 273 273 273 274 275 275 273 273 274 274 274 274 274 273 272 272 271 268 267 268 270 269 270 270 271 268 266 265 264 263 261 261 261 261 261 262 260 259 258 258 256 256 256 256 255 255 255 254 254 254 253 254 254 257 263 267 267 267 268 269 270 271 272 272 269
275 276 277 277 276 276 276 275 275 277 278 277 277 278 278 277 276 274 275 276 276 275 274 272 273 275 275 275 273 273 274 274 273 272 272 273 274 273 270 270 270 269 268 268 268 270 270 268 266 264 264 263 261 261 260 260 261 261 260 261 260 259 258 258 258 257 257 257 256 255 255 255 254 254 253 254 256 262 265 267 268 269 270 270 271 271 271
275 275 275 277 277 277 277 275 274 275 275 276 276 277 277 277 276 275 275 275 275 275 276 275 273 273 274 275 274 274 274 274 274 274 273 273 273 271 271 269 269 269 270 270 270 270 267 266 265 264 263 262 261 260 259 259 259 259 258 259 260 259 259 258 258 258 257 257 257 257 255 253 253 253 253 253 254 256 259 263 265 267 268 269 270 270 271
276 274 274 274 274 275 275 275 275 274 272 274 275 274 276 276 277 274 274 275 276 274 274 275 274 273 273 274 274 273 272 273 273 271 269 269 269 268 268 269 270 271 270 269 268 267 266 265 265 263 263 262 260 259 258 258 258 258 258 258 260 260 259 258 258 258 258 257 257 256 255 254 253 253 254 254 253 253 254 255 258 261 265 266 266 267 267
276 275 274 274 274 276 274 276 277 278 276 274 275 276 276 274 275 274 273 272 272 272 273 274 275 273 270 272 272 271 272 273 269 269 269 270 270 271 272 270 268 267 266 266 265 265 264 263 262 262 262 261 259 258 258 257 257 257 258 259 260 259 258 258 258 258 258 258 257 255 254 254 254 254 254 254 255 254 253 254 255 256 256 257 260 263 263
277 276 278 276 274 277 276 276 277 278 277 274 274 275 275 273 271 270 270 272 272 270 271 270 271 269 271 271 269 271 268 267 271 271 269 270 271 270 267 265 264 264 264 264 263 260 261 261 261 261 261 258 258 258 257 257 257 258 258 259 259 259 258 258 257 258 257 256 256 255 254 254 254 254 254 254 255 254 255 255 255 254 255 256 256 259 262
276 275 276 278 279 279 278 275 273 274 275 273 272 272 271 272 272 270 272 273 274 272 273 272 270 270 272 272 269 271 271 271 270 270 271 270 266 263 260 259 259 259 260 260 258 258 259 258 259 260 258 256 257 256 256 256 257 257 258 258 258 258 258 258 257 258 257 256 256 256 257 255 255 254 254 255 255 254 254 254 254 254 254 254 254 255 258
275 273 273 275 276 275 275 275 277 276 276 271 270 270 271 272 272 273 273 273 272 272 274 274 270 270 270 269 269 270 271 272 272 270 267 265 260 258 258 258 257 257 256 257 258 257 258 257 258 259 257 255 257 256 255 256 256 256 257 257 257 257 257 257 257 257 256 255 255 256 256 256 255 255 255 254 254 254 254 253 254 254 253 253 255 254 254
273 274 274 275 274 273 274 275 277 276 274 269 271 270 268 268 272 273 274 274 272 272 273 273 273 272 268 270 271 270 269 268 266 265 261 258 256 257 257 260 264 264 263 262 258 257 257 257 257 257 255 255 255 255 255 255 256 256 256 257 256 258 258 259 259 256 255 255 254 254 255 255 255 254 254 253 253 253 253 252 252 253 253 252 252 252 253
269 269 268 271 272 272 272 273 273 274 274 270 267 270 271 270 270 272 274 274 274 274 274 272 270 271 272 270 266 264 264 263 261 257 255 254 255 255 256 256 255 257 257 258 257 257 257 257 257 256 254 255 254 254 255 255 255 256 256 256 257 257 258 259 259 259 256 255 254 254 254 254 253 253 252 253 253 253 251 251 252 252 251 251 252 252 253
271 270 270 271 267 266 269 271 271 273 273 271 273 274 274 273 274 274 274 275 274 272 272 272 273 272 267 264 261 260 258 256 255 255 254 253 253 254 254 252 253 254 255 256 257 257 257 257 256 254 254 254 254 254 255 256 256 256 257 257 257 258 257 259 259 258 258 256 255 255 254 254 253 252 252 253 252 252 251 251 252 252 252 252 252 253 253
277 277 279 278 276 276 275 275 273 273 273 273 273 273 273 272 272 273 274 273 272 271 271 272 269 265 261 261 260 259 257 258 259 258 255 254 253 252 252 252 253 254 255 255 256 257 257 256 255 255 256 255 255 255 256 257 257 257 257 257 257 256 256 256 257 256 255 255 254 254 253 252 252 252 252 252 252 251 252 252 252 252 252 252 252 252 254
276 277 276 275 273 272 273 276 275 273 272 272 272 271 272 271 270 272 272 271 271 273 268 265 262 260 259 259 258 258 259 263 263 259 255 254 254 254 254 253 254 255 255 256 255 255 255 253 252 255 255 255 256 256 256 257 256 255 255 255 254 254 254 253 254 254 254 253 251 250 250 251 252 252 253 252 251 252 252 252 252 252 252 252 252 251 252
271 272 273 273 272 269 269 271 272 271 272 272 272 270 267 268 267 267 268 268 264 263 263 260 258 257 257 257 258 257 257 255 254 254 255 254 254 255 255 255 256 256 255 254 253 252 252 253 255 255 256 256 256 255 255 254 253 253 253 252 252 252 252 252 252 251 251 250 250 251 250 252 252 251 251 251 251 251 251 251 251 251 252 252 252 252 251
268 272 273 271 267 263 263 260 256 258 262 262 263 263 263 261 260 259 256 255 256 258 257 256 256 257 256 254 254 254 254 254 255 255 254 254 255 255 255 255 255 254 254 253 252 250 250 251 254 255 256 255 255 255 254 254 252 252 252 252 251 251 252 251 250 250 251 249 250 250 250 250 250 250 251 250 251 251 251 250 251 251 251 251 251 251 251
259 259 258 258 255 255 252 251 250 251 255 257 252 252 253 253 252 251 252 252 252 254 255 255 255 254 254 254 254 253 252 252 252 252 251 252 253 253 254 254 252 251 252 252 252 250 251 254 255 253 252 252 252 252 254 255 254 252 251 251 251 250 251 250 250 250 249 248 249 249 249 250 250 249 249 249 249 249 250 251 250 251 250 251 250 250 251
260 257 255 253 251 251 251 251 249 249 249 251 252 250 252 251 251 251 252 251 252 252 253 254 254 255 254 252 250 249 248 248 249 250 250 250 251 254 253 250 250 251 251 250 248 248 251 252 251 249 249 249 251 253 253 253 255 252 250 250 249 250 250 249 250 250 249 249 248 248 247 249 249 249 249 249 248 249 250 250 250 250 250 250 250 250 250
255 253 252 251 251 251 251 251 249 248 249 248 249 250 250 252 252 252 253 253 253 253 253 255 255 253 251 251 250 249 245 245 246 248 248 248 249 250 250 249 248 248 249 252 249 248 251 253 251 249 249 249 250 248 250 252 253 251 249 248 247 248 248 249 248 247 248 247 249 251 249 249 249 248 249 248 248 249 248 249 250 250 250 250 250 250 250
253 252 252 251 251 250 249 250 250 250 249 249 249 250 251 251 252 252 251 249 250 251 251 251 252 252 251 250 249 246 244 245 245 246 246 249 250 250 251 249 248 245 244 246 246 247 250 251 249 248 248 249 249 252 249 251 250 247 247 247 247 248 247 248 248 249 248 249 248 249 249 247 248 249 248 248 249 247 249 249 249 249 249 249 249 249 249
251 251 251 251 250 249 249 249 250 250 249 249 248 249 249 250 251 250 248 248 249 250 249 250 251 250 248 247 247 246 245 244 245 244 244 247 249 248 250 248 247 245 251 251 251 250 248 246 248 251 249 248 248 251 252 252 246 245 247 247 248 248 248 248 249 249 248 247 247 247 246 246 247 247 247 247 247 248 248 248 248 248 249 249 249 249 249
249 249 249 249 249 248 247 249 249 248 248 248 248 247 248 248 249 248 248 249 249 249 249 249 249 249 248 248 248 247 246 245 245 244 245 244 243 245 247 248 245 244 251 249 249 247 246 246 246 245 249 250 250 251 252 251 247 246 246 246 247 247 247 248 248 247 246 245 246 246 245 246 246 247 247 247 247 248 248 248 248 248 249 249 248 248 249
248 249 249 248 249 250 249 250 249 249 248 248 248 247 247 247 247 248 248 249 249 249 250 249 248 247 247 248 249 248 246 245 244 243 245 248 249 246 245 245 245 246 250 249 249 248 248 247 245 247 251 252 252 253 252 250 250 247 245 245 245 246 247 246 248 247 247 247 247 247 247 247 247 247 247 247 248 248 248 248 248 248 248 248 248 248 248
248 248 248 249 248 249 250 249 249 249 248 248 247 246 246 246 246 246 248 249 249 249 250 250 249 249 248 248 249 246 246 244 244 245 249 249 249 251 248 248 248 248 249 251 250 249 247 246 249 252 252 253 253 253 252 251 250 249 248 247 245 245 247 246 248 247 247 247 247 248 248 248 248 248 248 248 249 249 249 249 249 249 249 249 249 249 249
247 247 247 249 247 247 247 248 249 249 250 249 248 247 245 244 245 245 246 247 248 247 249 249 250 250 250 246 245 245 244 243 242 243 245 247 249 249 248 248 247 249 251 252 249 247 246 251 253 253 254 254 254 253 251 251 251 250 249 249 246 246 247 246 247 248 248 248 249 248 248 249 249 248 248 248 249 249 250 250 250 250 250 249 249 249 249
246 246 246 245 246 246 247 247 249 249 249 250 249 247 245 244 244 244 243 244 245 245 246 247 249 249 248 246 247 248 250 251 250 247 245 246 247 248 250 251 251 252 251 248 248 248 248 249 252 254 254 254 254 250 249 249 250 250 250 247 248 248 248 248 247 248 248 249 250 250 250 250 250 250 250 250 250 250 250 249 249 250 250 249 249 250 250
245 245 245 244 245 244 245 246 247 247 247 247 245 245 244 242 243 243 243 243 244 244 244 243 243 243 244 245 245 246 249 251 252 252 248 245 245 245 245 245 247 250 252 253 253 253 254 254 254 255 255 254 253 250 250 249 249 250 250 248 248 248 248 248 248 249 249 250 250 250 250 250 251 251 250 250 250 250 250 249 249 249 249 249 249 249 249
244 244 244 244 245 245 246 247 247 248 246 244 245 245 244 245 245 246 245 245 246 246 246 246 246 246 245 245 246 246 246 247 250 251 249 246 245 248 250 251 252 253 252 250 249 249 252 253 254 254 254 254 250 248 247 248 248 249 249 249 249 249 250 249 250 250 250 250 251 251 251 251 251 251 251 250 250 250 249 249 249 249 249 249 249 249 249
244 244 246 245 244 245 245 247 246 244 244 245 244 244 244 246 249 246 246 246 247 250 247 249 249 248 248 246 246 246 245 245 248 249 249 249 248 249 250 251 250 252 253 252 249 250 252 253 254 254 253 251 250 250 250 250 249 249 249 250 250 250 251 251 252 252 251 251 251 251 251 251 251 251 251 250 250 250 249 249 249 249 250 250 250 250 250
246 246 244 244 243 242 241 243 244 245 244 245 245 247 248 248 248 250 248 248 248 250 249 250 251 250 249 249 248 246 245 245 246 249 250 250 250 251 252 252 253 253 254 254 252 252 251 250 249 250 251 251 250 250 249 250 250 250 251 251 250 251 251 252 251 251 251 252 252 252 252 251 251 250 250 250 249 249 249 249 249 249 249 249 249 250 249
246 246 245 245 245 245 246 246 245 245 245 246 246 247 248 248 248 248 248 253 247 247 248 247 249 249 248 247 249 247 246 245 246 246 250 251 251 251 252 253 253 253 252 252 251 249 250 249 252 253 253 251 250 249 252 252 251 250 251 252 251 251 252 251 251 251 251 252 251 251 251 251 250 250 249 249 249 249 249 249 249 249 249 249 249 249 249
Wind_Speed
4 3 4 5 3 4 5 9 11 12 11 10 15 17 10 10 12 18 5 8 7 12 9 8 11 11 11 11 12 9 4 2 4 6 8 10 12 10 12 14 14 14 14 15 14 12 12 11 12 11 9 9 8 8 8 8 8 9 8 8 8 8 7 8 6 6 5 5 5 5 5 4 3 3 2 2 2 2 2 2 2 3 3 3 3 3 3
3 3 5 2 4 2 1 5 8 10 11 15 16 16 13 13 10 9 3 3 14 10 3 11 10 3 3 3 2 3 4 6 7 8 9 10 10 12 14 13 13 12 12 10 10 10 10 12 12 11 10 10 10 10 9 8 9 8 8 8 9 8 8 7 6 6 6 5 5 4 4 4 3 3 2 2 2 2 2 2 2 2 2 2 3 3 4
6 3 4 3 5 6 6 10 13 13 5 6 14 13 9 3 6 9 4 9 14 4 5 6 1 1 3 3 4 5 6 6 7 8 9 9 10 10 10 9 9 9 8 8 9 11 12 12 13 13 13 11 10 9 9 9 9 8 8 8 8 9 8 7 7 6 5 5 4 4 4 3 3 2 2 1 1 1 1 1 2 2 2 2 3 3 3
3 2 5 3 2 1 7 15 19 7 6 12 11 7 6 7 13 10 9 11 13 3 6 1 2 3 5 7 6 4 6 7 6 8 8 9 9 9 10 10 8 8 10 11 12 14 14 15 15 14 12 11 10 11 9 10 8 8 8 8 9 8 8 8 6 6 5 5 5 4 4 3 3 3 2 2 1 1 0 1 1 1 2 2 3 3 3
4 2 4 6 3 1 8 22 18 10 15 7 3 3 7 14 11 8 10 14 5 5 7 7 6 5 5 5 4 5 5 5 8 9 9 8 8 9 9 10 11 12 13 13 14 14 13 13 13 14 13 11 12 12 11 8 8 8 8 8 8 9 8 9 8 6 6 5 4 4 3 4 3 3 3 2 1 1 1 1 1 2 2 3 3 3 4
2 2 4 4 4 7 19 3 2 15 15 14 10 9 12 9 10 9 6 5 4 6 7 10 8 9 9 9 10 4 6 8 8 6 5 7 7 6 6 8 10 10 9 9 10 12 13 13 14 12 10 13 11 8 8 8 10 9 9 8 8 8 8 8 8 7 7 6 5 5 4 4 3 3 3 2 1 0 0 1 1 2 2 3 3 4 4
2 4 7 4 12 19 1 3 5 4 7 12 17 15 10 13 13 6 0 3 7 10 10 10 8 6 4 1 2 3 4 5 6 7 7 8 7 9 8 8 9 9 10 10 9 8 10 11 9 8 8 7 7 8 9 10 8 10 8 9 8 9 8 7 7 5 6 6 6 5 4 4 3 3 2 1 0 0 1 2 2 2 3 3 4 4 4
4 4 6 7 9 2 4 4 4 2 7 2 3 3 9 9 11 12 10 7 7 7 6 3 1 1 0 2 3 6 6 6 6 6 7 8 8 8 8 9 8 9 10 11 12 13 8 7 8 9 10 8 10 9 8 10 9 8 8 8 8 8 8 8 8 7 7 6 5 5 4 4 3 2 1 1 0 1 1 1 1 2 2 2 4 5 5
5 5 9 10 4 8 4 1 3 6 7 8 9 9 9 9 9 8 7 8 10 9 4 2 4 2 1 2 8 5 8 8 7 10 9 8 8 7 5 5 7 5 5 6 6 4 6 8 9 10 8 9 9 9 9 6 8 7 7 8 9 9 8 9 9 7 6 6 6 5 4 4 3 2 2 1 1 1 1 2 2 2 2 3 3 5 5
8 5 4 2 4 12 9 5 1 2 2 5 3 2 7 1 5 9 10 11 12 9 3 6 4 3 2 5 9 3 9 7 9 6 4 2 3 4 4 2 4 3 3 3 4 7 8 8 8 7 9 10 10 9 9 8 8 9 8 10 9 9 10 8 8 8 5 6 6 5 5 5 4 3 2 1 1 1 2 2 3 2 2 3 3 4 5
5 5 7 7 9 7 2 3 2 1 1 8 5 2 6 4 10 12 13 11 9 6 6 4 5 4 3 8 8 4 4 6 6 8 7 6 5 4 6 6 6 4 3 4 5 5 7 9 7 8 9 10 10 9 9 10 8 9 10 10 10 11 9 9 8 7 6 5 6 6 5 5 5 3 2 2 1 1 2 2 3 2 2 3 3 3 4
6 8 8 10 4 5 2 5 3 4 4 5 4 2 7 2 9 5 7 9 9 5 7 9 7 9 7 8 7 5 9 8 8 9 8 6 7 8 6 4 3 3 5 6 5 6 9 10 8 10 9 10 10 10 10 9 9 11 13 13 10 8 8 9 8 6 6 6 6 6 6 5 4 3 2 1 1 1 1 1 2 2 3 3 5 4 4
9 9 6 2 5 2 1 6 4 4 2 4 3 11 3 2 7 7 8 8 6 8 9 9 8 10 7 5 3 1 4 4 2 4 4 4 5 6 6 6 5 5 6 8 10 12 9 8 10 9 9 9 9 9 10 9 12 15 10 8 9 9 9 8 7 6 5 6 6 5 4 5 3 2 2 1 1 1 2 2 2 3 4 4 4 4 3
9 7 6 7 4 4 7 1 6 6 4 3 7 3 4 10 8 8 8 7 6 10 12 10 8 7 4 4 2 4 5 6 5 5 5 3 1 1 2 6 7 6 6 6 4 3 4 9 9 10 10 11 10 10 9 12 16 8 9 9 9 8 8 8 7 6 6 4 4 5 4 5 4 2 1 1 1 2 1 2 4 5 4 3 4 4 3
3 2 6 1 8 2 9 9 3 3 4 6 4 3 1 1 5 9 6 7 8 9 8 10 10 5 3 5 5 4 3 3 4 4 5 7 8 7 4 4 6 8 7 8 10 9 6 9 9 9 11 12 10 10 11 18 9 9 9 9 9 8 8 8 7 7 6 6 5 4 4 5 4 2 1 1 2 2 3 3 4 5 5 4 4 4 3
6 7 8 7 3 8 12 15 8 6 7 5 6 7 3 1 5 7 8 6 8 10 9 10 8 6 3 1 4 4 4 5 5 2 3 3 3 4 5 6 8 8 9 8 8 6 7 8 9 9 12 12 11 11 17 9 8 8 8 8 9 9 8 8 7 7 6 5 6 5 5 4 3 2 2 3 3 3 3 3 3 4 3 3 3 4 4
8 7 2 0 1 8 12 4 2 5 5 4 8 6 7 7 4 4 5 9 7 10 9 7 7 5 6 7 6 7 8 7 6 6 7 6 6 7 7 7 5 7 11 11 10 7 8 9 9 10 10 13 13 15 13 8 10 11 10 10 10 9 9 8 8 7 6 5 5 5 5 5 4 3 3 3 3 3 3 2 2 4 4 2 3 4 5
1 1 2 2 1 2 6 3 1 1 3 1 3 6 5 5 5 9 8 7 8 9 6 6 3 6 7 7 6 5 6 5 6 4 3 4 6 5 3 3 7 10 8 5 5 9 8 8 9 9 10 10 14 18 7 9 9 10 11 11 10 10 9 8 8 8 7 6 4 5 5 4 4 4 4 4 3 3 2 3 3 3 4 3 3 4 5
0 5 3 3 3 1 5 8 2 0 1 4 3 3 5 5 7 8 4 3 6 7 7 8 8 9 7 7 7 7 6 6 7 6 8 7 7 7 7 10 6 4 5 7 9 10 11 10 10 10 11 11 11 4 9 9 9 9 11 11 10 9 10 8 7 7 7 6 4 4 3 3 4 3 4 3 3 3 3 3 3 4 4 3 3 4 4
4 4 2 2 3 3 2 4 4 6 5 3 4 4 1 3 4 4 5 4 3 6 6 9 8 10 7 7 8 7 8 9 8 7 8 9 7 8 8 5 5 5 6 9 10 10 12 11 10 10 10 11 8 5 6 9 10 10 10 11 11 10 9 8 7 7 6 4 5 4 4 5 4 4 4 4 5 6 6 5 4 5 4 4 4 4 5
0 3 1 2 3 2 3 5 6 7 4 3 4 5 3 1 3 3 4 5 6 8 9 8 8 7 7 8 9 7 6 5 5 7 9 9 9 7 5 7 8 10 10 11 12 11 13 8 8 9 11 9 7 8 8 9 11 12 11 9 7 7 7 7 6 5 5 5 5 5 4 4 4 5 5 5 7 6 6 4 5 6 5 6 7 6 5
3 5 4 5 3 2 5 7 11 10 9 4 3 1 3 5 7 6 6 6 4 6 5 6 7 9 10 8 6 8 9 9 8 6 8 8 8 8 7 5 7 9 10 11 12 12 13 7 9 11 11 9 8 8 8 10 11 12 11 9 8 8 7 7 6 6 6 5 5 6 5 6 4 4 8 12 9 7 7 11 16 17 14 8 8 7 8
3 4 9 9 7 4 7 8 9 9 5 5 6 7 8 8 8 6 6 5 4 6 9 7 9 10 10 10 8 9 8 9 10 9 8 7 7 9 7 5 6 9 11 10 10 10 11 7 9 9 9 9 9 9 9 10 11 10 11 9 7 7 8 8 8 8 7 7 6 5 5 4 3 3 4 5 11 15 15 13 14 15 16 19 19 17 11
1 5 9 10 6 7 5 4 5 7 7 8 9 10 8 7 6 6 8 9 10 8 7 7 9 11 10 9 7 10 11 9 7 7 8 9 9 8 5 9 9 9 9 9 11 15 11 8 9 9 9 9 10 9 9 9 9 9 10 10 10 8 8 7 7 6 5 5 4 4 4 3 3 3 3 6 8 6 9 11 12 14 15 16 16 15 17
4 4 6 9 10 8 5 1 4 5 2 6 7 10 11 9 8 7 9 9 7 8 7 8 8 10 10 11 8 9 10 10 8 9 9 9 8 6 8 7 9 10 12 12 11 9 6 7 8 9 9 9 9 9 10 10 9 9 9 8 7 7 7 8 7 6 6 5 5 5 5 5 4 3 4 4 5 8 4 2 7 12 14 14 13 12 10
4 3 4 2 0 5 3 1 3 4 4 6 6 5 7 8 7 5 9 10 9 8 8 8 7 8 10 12 10 9 8 10 10 6 5 6 6 5 7 10 13 10 9 7 7 7 7 8 9 8 10 9 10 10 10 10 10 10 10 10 8 7 9 9 7 5 5 5 5 5 4 4 4 5 4 4 4 3 5 9 5 2 6 8 8 8 8
2 6 6 1 3 7 4 8 8 6 7 8 10 10 8 6 7 6 4 5 7 6 8 10 9 6 6 9 8 7 9 9 4 4 6 7 8 11 11 9 6 6 6 6 6 7 8 7 7 9 10 7 8 9 10 10 10 8 8 8 6 5 8 7 5 6 5 5 5 5 4 4 4 4 5 3 4 3 4 4 6 9 7 5 7 8 7
8 7 9 8 8 10 7 9 11 10 6 7 8 8 8 2 1 3 5 6 6 7 7 6 6 5 8 8 6 9 6 6 10 8 6 9 11 8 5 5 5 5 5 6 6 5 5 6 7 8 6 5 7 8 9 10 10 9 8 8 6 5 4 5 5 4 5 6 4 6 5 5 4 4 5 4 5 4 5 4 5 5 7 6 3 6 11
9 8 7 8 9 9 5 0 2 6 9 3 5 5 2 3 7 6 8 9 8 5 6 8 7 8 8 7 5 8 9 8 8 10 12 9 3 2 2 2 2 2 4 4 4 4 5 5 6 6 5 5 7 8 9 9 9 8 8 7 6 5 4 4 4 3 4 4 4 4 4 4 4 3 3 4 5 4 5 5 5 5 7 7 8 8 4
6 4 5 8 10 7 6 8 10 9 7 3 5 5 6 7 7 8 9 9 7 8 11 9 4 6 8 7 7 8 11 12 12 8 5 4 3 3 4 4 5 3 1 2 5 4 5 5 6 6 5 5 8 8 8 8 7 5 6 6 6 6 5 5 4 4 5 4 4 6 5 4 4 4 4 4 5 5 5 5 5 5 5 6 5 6 8
6 8 10 9 9 7 8 12 11 9 4 4 6 5 5 5 8 9 10 10 7 8 9 9 9 8 5 9 10 8 6 6 5 4 1 1 2 3 4 6 7 8 8 7 5 5 5 5 5 4 3 6 6 7 7 6 6 6 5 5 5 7 8 8 7 5 5 5 5 4 4 4 4 5 6 5 5 5 5 5 5 5 6 5 6 6 8
4 5 6 5 6 6 7 7 7 9 8 3 3 6 9 9 10 13 13 10 10 11 10 8 7 10 11 7 5 4 5 5 3 1 2 2 1 1 1 1 1 1 1 3 5 5 5 5 4 3 4 5 6 6 7 6 6 6 7 5 6 5 7 11 6 7 6 6 5 5 6 5 6 5 5 6 6 6 5 5 6 6 6 6 7 7 6
5 4 5 6 4 3 7 8 7 11 10 7 10 10 8 8 9 10 11 10 7 7 7 9 9 8 5 3 4 4 3 2 2 2 2 2 2 2 2 3 3 3 4 3 3 3 3 4 3 3 4 4 5 5 6 7 6 6 5 5 4 4 4 7 7 5 5 6 6 6 6 6 6 6 6 7 6 6 5 5 6 6 7 7 8 7 5
10 11 12 10 8 9 10 12 8 9 10 7 7 7 7 8 9 10 10 8 8 7 8 9 6 3 3 4 4 4 5 3 3 5 4 4 3 3 3 3 4 5 5 5 5 3 3 4 3 3 3 4 4 5 6 6 5 5 6 6 5 5 5 4 5 5 5 6 5 5 5 6 5 6 7 7 5 5 6 5 6 6 6 7 7 6 8
6 8 6 6 3 5 6 7 7 6 7 8 7 6 8 6 6 9 8 6 8 9 4 1 2 3 3 4 4 5 6 7 3 2 5 5 5 4 5 5 6 6 6 5 3 3 2 2 2 2 3 3 4 4 3 4 4 4 3 4 3 4 4 4 5 5 6 6 4 4 4 5 6 5 6 6 6 6 6 6 6 6 6 7 7 4 6
2 5 6 6 6 4 5 6 6 6 6 7 7 4 4 6 6 6 7 6 2 1 1 2 2 3 3 4 5 4 5 2 2 4 5 5 5 4 4 4 5 5 5 5 4 3 2 1 2 2 2 2 2 1 1 1 2 2 2 3 3 3 4 4 5 4 5 4 4 5 5 5 4 6 6 6 5 5 6 6 6 6 6 7 6 6 6
1 5 6 4 3 3 1 1 2 2 3 3 4 4 3 2 3 2 1 1 1 0 2 4 4 4 4 2 3 4 4 3 4 5 6 5 5 6 6 5 4 4 3 4 1 2 3 2 1 2 2 1 2 2 3 5 3 3 3 4 4 4 5 5 5 5 5 4 4 4 5 5 4 5 6 5 5 6 6 6 7 6 6 6 6 6 7
4 5 3 3 2 3 3 1 1 1 1 1 2 2 2 1 2 1 2 3 3 2 1 2 3 5 6 5 6 6 5 4 6 7 6 6 5 7 5 5 3 3 4 3 2 3 3 4 5 2 1 1 1 1 3 5 5 4 4 4 4 4 5 5 5 6 5 4 6 4 4 4 5 5 6 6 6 5 6 6 6 6 6 6 5 5 7
6 5 4 3 3 5 5 3 4 4 6 3 1 2 2 1 2 3 4 4 3 2 4 5 6 7 6 8 6 5 4 4 5 6 6 5 3 5 5 2 1 2 2 2 3 1 0 1 1 0 0 1 1 2 2 3 5 4 4 4 3 4 5 5 5 6 5 5 3 4 4 5 5 5 6 6 6 6 7 7 7 7 6 6 5 6 6
4 6 5 4 4 3 4 6 6 6 5 4 3 3 3 2 3 5 4 5 5 4 3 4 6 7 6 7 7 6 3 3 4 5 5 5 5 7 5 4 3 2 1 1 0 0 1 2 1 0 1 1 1 1 1 2 3 4 4 4 4 4 4 5 3 4 4 3 5 5 5 6 5 6 6 6 6 6 6 6 6 6 6 5 6 6 6
4 5 5 4 4 4 4 5 6 7 6 6 6 5 4 3 2 6 7 5 5 5 6 3 5 6 5 6 7 6 3 2 3 4 3 4 6 5 6 2 1 2 1 1 0 0 1 1 1 1 2 1 0 2 2 4 2 4 4 5 4 4 4 4 4 5 5 6 6 5 6 6 6 6 6 6 6 5 6 6 6 5 5 6 6 5 6
6 4 3 4 4 4 4 4 4 7 7 7 6 5 6 5 6 7 4 4 5 6 7 8 8 8 7 7 7 5 5 3 3 2 2 2 4 6 6 2 1 1 1 0 1 1 0 1 1 2 3 2 2 3 3 3 3 3 4 3 5 4 5 5 5 5 6 5 5 5 6 5 6 5 6 6 5 6 5 5 5 5 6 6 6 6 6
5 4 3 3 3 3 3 4 6 6 5 6 5 5 4 4 6 5 5 6 6 7 9 8 8 8 7 6 7 7 4 2 3 1 0 1 3 1 2 4 2 1 2 1 0 1 2 2 2 3 3 3 2 4 4 2 2 4 3 4 5 4 5 5 5 4 4 4 5 5 5 6 6 6 6 6 6 6 5 6 6 6 6 6 6 6 6
3 3 2 3 3 3 4 5 4 5 8 6 5 5 5 6 5 6 6 7 6 6 7 7 6 6 5 5 6 5 4 3 2 1 5 4 4 0 3 3 2 1 2 1 0 2 3 3 2 3 4 5 5 5 3 2 2 3 3 3 4 4 4 4 5 5 5 5 5 5 5 6 6 6 6 6 6 6 5 6 6 6 6 5 5 6 6
4 4 4 4 2 3 4 4 5 7 6 4 5 6 6 6 5 4 5 6 7 6 6 7 8 6 4 3 4 3 3 2 4 3 6 4 5 1 0 2 1 1 2 2 2 1 2 2 4 5 5 4 5 4 3 3 3 3 3 3 3 3 4 4 5 5 6 5 5 5 6 5 6 6 6 6 6 6 6 6 6 6 5 5 5 6 7
4 5 4 5 5 4 3 3 3 4 5 7 8 7 6 5 5 5 4 5 6 4 5 5 6 5 5 5 4 2 2 1 2 2 1 1 1 0 0 1 1 2 4 4 1 2 3 5 5 5 5 4 4 4 3 4 4 4 4 4 3 6 5 5 5 6 6 6 6 5 6 6 5 6 6 6 6 6 6 6 6 5 6 6 6 6 6
4 4 5 5 4 3 3 2 2 3 4 6 8 6 5 5 5 5 4 4 4 5 4 4 4 3 2 3 3 3 5 4 4 0 3 4 2 2 2 2 3 4 4 3 3 4 4 4 4 5 5 5 5 3 3 3 4 3 4 3 4 5 5 5 5 6 5 5 6 6 6 6 6 6 6 5 6 6 6 6 6 7 6 6 6 7 7
4 4 4 4 4 3 4 4 6 7 6 6 4 2 1 2 3 3 2 3 3 3 2 2 1 1 1 1 2 1 0 2 4 0 1 1 0 1 1 2 4 4 5 5 5 4 6 7 6 6 6 6 5 4 4 4 3 4 3 3 3 4 5 5 5 5 5 5 5 5 5 5 5 5 5 6 6 6 6 6 7 6 5 6 6 6 6
3 4 4 5 4 7 6 5 5 6 4 1 3 2 1 2 3 4 3 4 6 5 3 3 2 2 0 1 1 2 1 1 0 0 0 1 1 1 2 3 5 5 4 3 3 4 5 6 6 6 6 5 3 4 3 3 4 4 4 3 3 4 5 6 6 5 5 5 5 5 5 5 6 5 6 6 6 6 6 6 7 6 6 6 6 6 6
2 4 5 5 4 5 4 5 5 3 1 2 2 1 1 1 5 4 3 4 2 3 3 3 3 3 2 1 1 2 1 0 1 1 1 2 3 3 3 3 3 5 5 4 3 5 5 6 6 6 5 3 3 3 3 4 3 3 3 5 4 4 5 7 5 6 6 6 5 5 5 6 6 6 5 5 6 6 6 6 6 7 9 8 7 7 6
3 5 5 5 3 2 3 4 4 3 2 2 0 0 1 4 3 3 2 2 4 4 3 3 3 2 4 3 2 1 1 1 1 2 2 2 2 3 3 3 3 3 4 4 4 4 4 3 4 5 4 3 3 3 3 3 3 3 4 5 5 5 5 6 6 5 6 6 5 5 6 5 5 6 6 6 6 6 6 6 6 6 6 6 6 6 6
4 4 4 4 5 5 5 4 3 3 2 1 2 2 2 2 3 2 2 4 3 2 2 2 1 0 1 2 2 1 0 1 2 1 3 3 2 3 4 4 3 3 4 3 4 3 3 3 5 5 5 4 4 4 4 4 4 3 4 5 4 5 6 6 6 5 5 6 5 5 6 5 5 6 6 6 6 6 6 6 6 6 6 6 6 6 6
Wind_Direction
120 127 123 139 124 169 175 197 204 202 193 164 193 220 213 146 200 237 213 157 220 251 239 193 212 203 203 204 212 211 201 159 151 169 186 194 200 190 188 200 200 199 196 197 197 191 191 187 194 197 195 199 202 204 201 189 174 183 168 162 157 149 144 140 144 140 132 118 114 114 113 109 107 103 89 74 61 52 45 37 28 21 7 360 2 1 357
181 184 153 152 161 192 263 230 221 212 176 190 201 219 216 205 229 254 277 185 235 243 176 198 215 194 188 204 110 115 158 188 181 187 200 203 202 201 204 204 202 202 202 193 192 189 189 193 195 195 197 199 199 197 197 181 180 179 159 169 154 153 152 147 141 135 123 118 120 121 119 120 114 108 90 77 69 58 38 36 14 6 0 355 2 351 345
243 163 110 152 182 187 233 245 239 230 193 196 212 221 225 226 272 259 147 215 247 242 191 200 276 121 106 118 177 178 185 174 186 193 204 207 208 208 210 209 209 202 195 193 188 193 198 196 198 198 200 198 193 195 190 180 184 173 169 160 161 158 152 143 137 130 124 127 126 126 127 122 119 124 119 137 105 94 38 21 357 359 345 352 352 339 340
225 116 155 159 99 107 236 258 247 194 163 223 224 206 183 187 222 217 227 243 250 195 203 136 135 134 170 203 209 182 206 199 183 195 207 208 208 206 207 207 198 197 200 199 198 200 200 200 200 199 196 194 186 196 185 183 175 158 165 162 160 160 142 141 140 135 133 134 132 132 136 147 146 148 157 154 136 117 24 2 342 334 339 351 330 336 327
208 67 146 143 108 5 288 249 242 191 209 198 94 202 196 211 199 200 211 234 224 177 178 172 217 189 218 227 210 214 229 203 192 204 208 209 211 209 204 199 203 204 202 201 201 204 204 203 201 204 194 182 192 190 182 178 144 162 165 161 153 145 147 142 139 137 139 142 141 146 162 163 156 157 149 148 136 144 14 317 302 330 345 335 327 329 325
134 28 107 114 125 210 236 315 128 183 205 192 176 203 200 207 172 211 200 215 143 139 169 187 204 200 214 210 225 200 190 192 209 224 217 214 213 212 211 209 206 210 207 209 210 208 205 205 205 200 185 189 188 170 160 151 161 163 155 155 156 154 151 150 142 146 143 146 152 162 166 159 151 142 132 137 129 229 325 311 328 325 326 325 326 324 322
171 113 113 150 207 232 16 324 323 314 214 186 197 215 193 205 215 223 192 147 185 196 192 197 210 211 229 298 226 238 222 178 184 192 215 225 219 219 212 207 208 203 201 203 204 206 211 205 191 165 182 176 146 146 158 161 167 156 161 152 158 156 159 151 148 151 158 155 159 162 159 148 137 133 132 144 202 235 324 320 326 322 323 319 311 311 308
60 110 186 212 236 306 304 320 332 11 77 80 111 310 255 228 210 203 212 219 221 226 223 230 149 148 232 328 240 222 231 193 171 181 213 221 212 218 220 210 213 192 195 198 197 208 194 165 176 179 179 160 155 163 158 162 160 161 156 159 162 155 163 168 166 168 161 160 159 155 151 140 125 136 149 177 249 292 288 288 275 288 296 300 303 307 305
170 192 197 234 358 321 235 338 234 169 154 167 163 223 247 215 187 162 186 224 243 243 237 150 88 90 64 349 285 223 209 205 204 196 211 206 216 217 235 204 228 213 208 207 203 152 161 174 168 183 162 156 151 146 160 163 158 157 158 168 177 176 177 170 174 171 163 155 156 154 152 144 146 172 171 207 238 214 261 286 294 295 288 292 296 294 296
153 154 215 324 276 248 247 210 235 107 193 140 157 138 280 325 167 169 169 207 226 228 113 111 137 99 49 310 275 245 217 202 204 234 247 242 220 216 229 235 244 228 199 163 154 160 164 176 180 157 154 154 150 155 163 159 159 168 173 189 182 180 182 176 173 166 160 154 157 159 157 161 165 176 174 209 218 211 266 287 291 278 292 292 277 276 283
106 199 218 214 220 243 163 202 185 210 137 120 110 71 280 252 183 194 178 200 223 209 144 159 136 91 190 247 248 252 205 200 201 205 223 220 223 219 211 207 223 220 182 159 152 145 157 176 178 155 153 152 152 168 167 170 172 173 195 191 183 188 182 167 164 156 154 158 157 162 167 166 164 176 196 204 210 218 233 245 269 284 292 288 279 274 266
203 192 216 226 219 242 240 194 223 194 184 124 69 304 271 248 199 174 157 197 215 181 153 150 152 161 199 244 256 209 195 187 189 184 196 204 218 229 218 231 209 169 142 122 142 163 184 193 158 157 156 160 170 169 176 163 177 195 201 196 183 164 151 154 151 154 159 161 164 166 167 160 165 177 180 179 215 239 264 273 279 291 282 275 280 281 279
212 215 246 2 298 268 209 181 177 171 181 78 110 234 229 216 188 191 179 201 191 147 149 163 169 226 191 196 206 162 127 108 171 231 224 200 192 203 197 205 163 153 177 180 187 192 195 163 156 162 158 159 177 179 166 175 199 209 192 158 161 160 147 151 156 158 160 164 165 170 162 159 157 159 172 202 231 259 281 293 289 290 281 274 276 281 285
221 227 224 240 266 220 162 277 155 181 107 191 206 239 176 150 195 203 191 175 158 162 168 185 204 218 177 127 114 134 183 174 185 190 198 197 238 248 185 175 170 171 176 199 204 204 172 163 165 164 167 173 184 167 172 198 213 184 148 161 155 154 158 161 161 159 160 160 157 159 155 139 151 182 197 173 221 243 257 271 282 280 281 280 280 285 292
51 127 239 255 243 172 132 129 49 300 135 240 169 133 13 163 171 165 195 182 186 166 189 206 209 213 140 172 184 199 205 236 214 193 177 188 199 192 159 190 202 171 179 198 210 203 171 166 171 176 172 179 177 178 187 214 186 147 158 154 156 155 156 160 164 164 163 159 162 159 153 161 152 182 196 206 239 222 226 252 261 275 275 281 291 299 301
175 184 205 211 212 146 175 145 173 207 197 180 154 131 169 193 150 172 176 212 187 189 185 200 223 231 200 266 229 219 244 242 255 236 230 236 223 211 213 199 188 181 197 204 211 194 174 179 178 180 178 183 184 181 212 192 137 146 150 157 152 156 163 166 160 164 166 164 164 164 159 152 149 173 216 222 229 226 218 227 248 270 278 287 300 305 308
159 199 200 285 269 161 189 182 130 189 173 151 167 144 162 164 226 182 169 198 192 197 200 205 198 207 209 216 197 184 216 215 222 228 225 215 219 218 212 216 191 189 199 204 204 199 193 185 190 190 195 185 185 201 212 141 165 159 160 156 161 167 169 167 167 165 161 169 167 167 166 152 159 181 219 201 228 237 208 233 241 263 275 276 283 292 297
224 282 156 122 43 221 210 263 227 142 141 230 164 150 143 218 174 166 186 201 187 197 199 179 222 204 217 209 218 218 232 220 230 227 252 251 239 240 233 205 189 203 212 212 190 207 210 198 197 198 202 194 188 214 160 160 160 163 156 160 168 173 167 168 172 163 168 175 173 174 167 170 176 185 194 203 209 231 220 235 229 242 267 266 270 273 276
77 269 60 145 182 179 197 218 220 92 215 188 169 167 187 183 170 190 219 160 187 186 170 191 204 222 214 210 220 213 221 225 227 217 219 236 224 219 218 226 187 191 189 200 211 209 217 207 201 205 203 212 216 144 160 160 159 161 165 168 168 164 174 172 168 174 175 181 179 177 176 176 186 186 191 193 205 229 225 228 235 233 249 248 259 258 255
172 243 141 216 310 254 256 236 219 244 231 203 210 225 119 115 166 173 184 135 142 142 172 203 201 228 219 201 227 219 216 217 216 212 217 229 242 234 223 218 181 188 189 210 218 214 224 215 200 203 206 214 207 168 162 159 159 159 169 176 174 178 174 174 174 176 179 171 170 181 190 175 187 200 208 196 198 213 201 205 206 231 219 233 236 247 253
173 25 314 295 347 356 256 244 248 244 236 178 212 227 236 163 160 194 188 199 178 174 205 197 203 222 238 209 218 223 229 229 224 219 218 223 226 232 209 211 187 197 203 211 220 215 229 212 186 198 210 210 190 182 175 162 161 168 175 176 165 164 169 165 178 171 179 181 185 183 193 199 217 204 190 193 212 231 225 193 208 223 233 236 242 239 244
216 173 192 165 106 256 243 227 228 232 231 190 197 156 209 209 209 204 197 227 214 209 218 185 191 207 230 221 201 222 229 223 223 222 226 229 229 236 229 197 197 209 210 211 217 219 231 203 190 200 206 200 190 186 171 171 171 176 171 163 167 176 173 179 175 174 177 189 182 185 192 208 223 264 239 231 220 211 242 228 232 236 229 221 227 237 250
232 215 191 191 193 208 216 201 217 222 212 168 200 222 228 230 219 197 187 213 235 235 238 206 192 213 218 224 198 217 235 237 227 219 218 225 231 236 218 194 215 212 219 216 222 228 230 198 199 200 201 194 187 187 178 178 180 177 162 166 177 178 172 192 185 181 176 171 183 181 191 183 199 233 312 278 255 248 248 248 254 256 256 257 257 252 251
194 199 177 195 179 202 239 216 203 217 207 183 210 229 230 232 217 187 197 207 210 229 230 215 208 213 224 228 186 213 235 242 236 227 226 224 226 226 200 201 212 212 223 219 218 226 223 197 201 196 199 195 189 182 176 176 181 173 173 172 183 190 182 170 178 176 174 176 172 180 184 190 187 205 246 294 299 255 236 252 258 261 262 265 268 272 272
202 211 185 193 205 222 233 186 201 224 211 175 200 228 228 226 226 194 203 226 226 222 229 227 221 214 219 235 212 216 227 239 227 224 226 226 230 218 218 210 215 213 219 217 220 224 206 198 198 197 199 199 178 177 174 175 173 174 183 187 186 178 184 174 167 165 171 174 178 177 180 185 195 195 207 218 253 302 317 256 270 271 272 268 271 274 272
166 162 182 177 260 246 260 32 307 258 227 195 212 241 242 219 221 188 210 217 228 219 221 235 232 219 207 224 229 223 234 245 242 222 227 232 233 227 227 219 222 218 224 220 218 212 207 202 200 194 205 197 181 176 168 172 177 182 181 189 188 184 177 173 171 176 173 178 176 180 180 183 185 188 211 206 216 228 294 316 326 269 272 295 308 317 315
146 169 123 77 290 269 208 189 229 229 203 202 200 221 228 217 210 211 229 230 233 227 219 228 230 217 206 226 233 226 216 245 258 234 220 229 228 223 224 226 224 219 215 213 213 208 201 195 195 202 213 194 171 166 169 170 174 179 184 187 185 175 172 177 179 173 166 171 171 170 172 191 190 203 208 211 203 209 213 230 275 294 296 297 304 305 294
198 198 175 186 217 232 235 217 228 246 231 191 208 224 241 206 149 217 248 255 259 246 239 239 233 226 225 230 207 245 245 247 246 243 233 235 234 231 219 208 202 200 200 204 211 189 184 188 198 208 212 163 163 165 167 170 175 180 181 181 179 163 162 179 175 174 160 161 171 178 189 195 190 195 193 201 215 221 224 226 228 252 281 277 266 272 283
217 205 209 215 223 231 251 188 217 239 254 206 194 214 190 204 233 230 242 240 240 246 255 246 218 221 227 237 190 226 235 239 243 246 236 240 242 186 151 135 125 146 176 192 186 176 178 183 192 204 202 157 160 164 167 170 176 179 180 182 178 178 170 172 170 168 161 169 181 190 200 189 185 188 200 216 225 224 224 226 234 244 250 285 310 305 280
204 156 190 228 242 251 263 267 253 247 243 164 167 209 207 199 228 242 237 246 240 237 243 250 237 228 215 232 225 217 226 232 234 248 261 230 183 149 138 130 95 62 73 187 201 181 177 183 186 201 188 160 163 165 166 172 173 170 168 173 183 176 167 169 163 166 161 178 185 204 209 200 184 197 216 216 224 222 225 232 238 242 253 255 256 270 290
151 187 197 215 226 233 227 241 252 259 247 172 190 198 216 196 221 239 245 243 241 241 251 244 240 245 219 220 230 225 234 251 255 248 210 124 142 159 159 163 174 209 213 213 174 174 177 180 185 189 144 148 153 154 157 165 162 156 158 166 174 184 183 180 184 177 175 175 188 197 208 205 205 204 218 222 227 230 232 237 245 253 250 257 259 255 254
139 204 220 232 229 232 248 257 262 262 252 179 167 215 209 192 214 229 239 242 234 229 241 247 245 239 236 233 223 208 212 221 212 132 102 86 87 94 140 31 14 34 117 139 154 169 167 158 171 150 133 143 146 156 161 166 163 171 184 172 167 177 186 188 192 192 174 183 191 198 201 196 212 204 221 223 228 229 232 230 240 241 245 249 254 251 254
193 242 277 257 258 261 258 252 235 253 253 217 214 225 226 214 221 234 237 239 249 240 230 243 243 244 237 182 173 174 162 129 98 103 120 114 89 80 58 55 69 74 70 64 103 109 141 145 137 121 123 136 149 160 175 174 177 183 184 171 169 172 168 198 195 198 182 178 199 203 197 202 202 202 217 224 227 229 226 235 238 244 244 247 251 257 253
205 222 237 237 198 213 228 248 232 237 257 249 232 228 228 224 220 232 242 245 247 256 241 241 249 225 170 174 171 153 139 132 206 213 179 145 144 116 75 67 66 70 66 52 58 77 69 83 102 121 131 141 151 170 181 185 182 186 169 149 169 166 189 199 206 195 197 214 208 199 195 197 202 210 220 221 223 222 228 231 235 239 251 254 256 257 263
223 248 252 260 240 215 220 235 247 230 231 252 254 234 232 232 223 230 239 242 239 244 256 225 191 156 151 153 161 172 178 212 226 147 151 151 147 138 121 108 95 77 70 54 52 45 65 90 100 106 116 132 141 153 171 190 176 172 168 172 173 186 192 188 196 208 209 213 197 202 212 212 222 217 217 216 223 224 230 233 235 240 243 256 264 261 263
199 252 267 263 257 226 219 237 243 246 238 240 253 258 231 231 229 234 236 239 277 287 167 137 123 120 136 162 178 186 197 188 101 117 127 131 131 131 128 115 119 104 95 67 35 12 8 75 99 125 110 117 116 128 128 132 140 146 158 151 176 189 194 204 209 215 217 203 212 213 211 217 217 220 223 227 228 226 228 236 239 240 243 251 259 270 270
258 242 265 295 355 34 26 23 13 0 277 272 283 291 279 280 240 266 330 1 27 48 125 127 126 146 154 117 102 90 83 90 101 112 119 121 125 120 113 105 86 96 93 94 30 15 353 25 63 148 159 144 169 159 170 169 170 178 166 175 184 195 201 207 212 209 226 217 221 222 226 222 229 232 229 223 228 229 228 236 241 240 244 247 252 255 265
28 35 31 42 29 68 78 61 10 9 18 98 65 46 328 301 352 57 57 39 23 18 65 91 113 111 106 95 75 75 77 79 102 111 119 128 139 123 104 98 104 105 106 143 148 101 49 78 76 72 96 154 198 209 190 198 182 161 179 188 193 200 204 212 215 218 219 224 221 218 222 226 230 240 236 234 234 234 235 236 237 242 247 248 246 247 248
4 9 45 36 67 80 100 60 40 38 39 21 349 31 29 55 64 69 61 42 8 24 81 96 105 99 99 102 101 88 85 100 114 117 117 107 92 92 98 108 170 99 86 93 116 126 67 1 99 119 152 199 196 178 181 217 207 169 179 187 197 200 212 210 216 222 227 221 217 223 226 234 234 239 242 236 231 235 236 237 239 241 245 247 244 247 245
12 8 352 357 33 18 56 57 47 37 23 28 60 33 355 32 52 74 69 51 17 27 82 120 114 112 115 114 116 111 103 95 106 107 109 104 92 98 92 43 9 332 305 250 27 2 334 351 14 315 239 225 198 195 197 189 200 163 171 181 198 202 209 214 215 222 230 219 228 230 225 229 233 236 239 240 236 233 234 236 240 242 246 247 245 247 249
7 355 356 39 37 36 52 67 60 44 34 28 21 13 19 42 48 69 54 40 10 26 33 52 100 98 101 110 110 117 113 90 90 103 114 99 82 102 111 134 330 337 336 23 75 201 294 252 220 247 272 230 280 201 189 208 177 155 169 177 190 198 216 217 222 225 225 230 226 227 232 237 240 243 239 240 238 236 237 237 237 239 237 245 250 249 247
348 357 20 41 44 51 63 74 81 60 39 26 20 23 27 38 73 88 81 68 59 53 60 51 64 92 100 101 101 94 75 56 73 49 20 98 136 126 110 150 176 13 345 56 1 35 2 321 306 283 270 255 241 245 227 194 176 182 190 207 212 218 219 228 228 233 228 225 225 230 236 234 235 245 247 243 247 245 242 239 243 244 242 239 245 246 246
2 18 36 56 59 49 57 70 77 87 73 39 33 31 43 58 77 82 80 73 77 81 78 80 85 88 98 104 106 98 86 54 60 24 357 294 217 199 131 171 201 266 304 325 306 330 304 291 274 271 270 262 239 246 243 216 162 180 193 209 217 218 221 222 228 233 227 225 233 231 230 230 232 238 244 241 242 244 241 238 241 244 241 240 241 246 244
360 30 61 75 76 85 94 89 91 79 75 46 17 33 52 54 51 70 80 80 74 75 91 92 89 94 104 120 112 113 142 139 122 135 93 68 64 81 182 190 204 242 258 230 235 256 268 270 265 266 275 272 271 257 217 199 195 189 200 206 213 216 220 229 235 230 230 232 232 235 232 231 230 232 233 242 245 245 239 241 241 241 244 245 245 247 252
22 28 36 53 60 72 77 89 102 102 111 117 74 54 50 59 52 52 79 87 87 88 90 99 81 85 111 106 109 131 157 175 170 155 96 77 85 57 107 168 271 300 275 285 279 271 270 268 258 257 254 254 246 241 221 210 208 211 210 210 215 221 224 226 228 229 228 232 236 238 231 231 230 232 231 238 237 243 244 242 243 237 237 243 243 245 247
26 19 19 45 50 52 60 96 101 112 113 97 76 53 34 33 47 46 47 71 81 70 63 63 88 101 103 112 90 63 22 348 270 266 226 159 138 226 83 136 271 275 293 295 290 276 265 262 265 262 254 247 234 218 209 216 218 219 218 221 220 221 224 226 226 227 225 229 233 232 233 236 232 232 230 234 237 243 249 246 251 248 236 241 245 245 251
38 45 43 55 54 49 51 51 67 69 64 66 68 49 15 18 28 38 27 28 57 50 36 34 39 46 57 132 114 74 69 57 29 58 194 282 289 297 279 280 285 282 279 271 258 260 259 265 263 261 256 250 243 215 211 216 216 219 221 228 230 233 236 234 230 231 230 233 234 234 236 233 235 237 236 237 240 241 246 246 251 251 248 244 248 248 251
78 75 66 67 72 50 53 54 62 61 62 80 102 78 18 27 53 54 38 55 58 54 46 30 359 320 328 339 316 282 232 76 93 328 152 188 226 179 267 247 246 243 258 269 266 267 267 267 268 267 258 252 235 219 214 215 211 216 224 233 236 245 246 248 245 238 238 236 236 237 242 242 241 238 236 236 241 240 239 241 248 253 249 242 246 246 247
101 107 94 85 78 73 80 84 86 84 94 105 104 118 152 108 87 57 45 46 59 53 43 30 29 14 329 261 244 276 252 299 32 157 313 145 221 271 269 266 275 275 274 264 270 276 265 261 261 263 258 253 232 226 218 219 223 224 224 229 234 241 244 244 245 239 236 239 237 235 239 242 245 237 241 238 240 240 240 241 243 243 248 247 249 249 248
80 77 63 49 56 52 63 86 90 123 156 90 103 92 315 40 58 18 23 30 30 31 36 22 14 8 8 339 290 278 310 292 279 282 261 237 243 251 264 265 268 271 266 265 263 269 265 266 273 274 266 249 234 224 220 218 221 232 236 240 240 240 239 244 248 241 238 241 242 238 241 242 245 244 244 245 246 244 241 242 245 244 243 244 251 254 253
70 80 80 81 80 83 72 91 119 127 103 98 111 324 49 68 73 51 34 24 29 40 16 4 29 21 14 1 356 333 275 265 262 262 265 270 260 269 265 266 266 263 268 269 268 274 281 282 274 273 269 261 249 239 229 228 228 230 235 238 241 242 243 244 244 245 243 238 240 242 242 243 241 245 245 244 246 247 245 245 246 245 243 243 245 250 252
86 90 92 100 93 89 89 85 81 89 98 99 89 92 84 105 100 74 38 49 69 57 24 44 25 325 53 356 356 345 273 232 249 265 265 265 270 267 272 263 265 270 271 277 278 280 278 280 284 286 284 274 259 251 253 248 245 241 239 241 242 243 243 242 243 248 251 248 247 250 249 245 244 248 250 247 245 247 249 246 247 249 249 250 248 249 254